Hagerstown, MD

2:26 AM EST on November 18, 2019 (GMT -0500)
Hagerstown Regional-Henson

Weather History for KHGR - September, 2019

Change the Weather History Date:

Thursday, September 12, 2019

  Actual Average Record
Temperature  
Mean Temperature 82 °F 67 °F  
Max Temperature 93 °F 77 °F 93 °F (1998)
Min Temperature 70 °F 58 °F 52 °F (1999)
Degree Days  
Heating Degree Days 0 1  
Month to date heating degree days 0 7  
Since 1 July heating degree days 0 12  
Cooling Degree Days 17 3  
Month to date cooling degree days 116 57  
Year to date cooling degree days 1325 925  
Growing Degree Days 31 (Base 50)    
Moisture  
Dew Point 66 °F    
Average Humidity 66    
Maximum Humidity 90    
Minimum Humidity 41    
Precipitation  
Precipitation T in 0.11 in 0.43 in (2000)
Month to date precipitation 0.05 1.20  
Year to date precipitation 28.42 27.83  
Sea Level Pressure  
Sea Level Pressure 30.12 in    
Wind  
Wind Speed 8 mph (NNW)    
Max Wind Speed 18 mph    
Max Gust Speed 24 mph    
Visibility 10 miles    
Events      
T = Trace of Precipitation, MM = Missing Value Source: NWS Daily Summary

Daily Weather History Graph

Daily Weather History Graph

Search for Another Location

Airport or City:

Astronomy

Sep. 12, 2019 Rise Set
Actual Time 6:49 AM EDT 7:24 PM EDT
Civil Twilight 6:21 AM EDT 7:51 PM EDT
Nautical Twilight 5:49 AM EDT 8:23 PM EDT
Astronomical Twilight 5:16 AM EDT 8:56 PM EDT
Moon 7:07 PM EDT (9/12) 5:07 AM EDT (9/12)
Length of Visible Light 13h 30m
Length of Day
12h 35m
Waxing Gibbous, 98% of the Moon is Illuminated
Sep 12
Waxing Gibbous
Sep 14
Full
Sep 21
Last Quarter
Sep 28
New
Oct 5
First Quarter

Hourly Weather History & Observations

Time (EDT) Temp. Heat Index Dew Point Humidity Pressure Visibility Wind Dir Wind Speed Gust Speed Precip Events Conditions
12:53 AM 75.0 °F - 68.0 °F 79% 30.09 in 10.0 mi SSE 5.8 mph - N/A   Clear
1:53 AM 73.9 °F - 68.0 °F 82% 30.09 in 10.0 mi South 4.6 mph - N/A   Clear
2:53 AM 72.0 °F - 68.0 °F 87% 30.08 in 10.0 mi North 5.8 mph - N/A   Clear
3:53 AM 72.0 °F - 66.9 °F 84% 30.08 in 9.0 mi Calm Calm - N/A   Clear
4:53 AM 72.0 °F - 66.9 °F 84% 30.09 in 10.0 mi Calm Calm - N/A   Clear
5:53 AM 72.0 °F - 66.9 °F 84% 30.10 in 9.0 mi Calm Calm - N/A   Clear
6:53 AM 71.1 °F - 68.0 °F 90% 30.12 in 7.0 mi SSW 4.6 mph - N/A   Partly Cloudy
7:53 AM 72.0 °F - 68.0 °F 87% 30.13 in 7.0 mi SSW 3.5 mph - N/A   Clear
8:53 AM 77.0 °F - 68.0 °F 74% 30.13 in 10.0 mi SW 6.9 mph - N/A   Clear
9:53 AM 79.0 °F - 69.1 °F 72% 30.13 in 10.0 mi SSW 6.9 mph - N/A   Clear
10:53 AM 86.0 °F 88.8 °F 66.9 °F 53% 30.12 in 10.0 mi West 8.1 mph - N/A   Clear
11:53 AM 89.1 °F 91.0 °F 64.9 °F 45% 30.12 in 10.0 mi NNW 15.0 mph - N/A   Clear
12:53 PM 91.0 °F 92.6 °F 64.0 °F 41% 30.10 in 10.0 mi NNW 13.8 mph - N/A   Scattered Clouds
2:53 PM 91.0 °F 92.6 °F 64.0 °F 41% 30.08 in 10.0 mi NW 10.4 mph - N/A   Scattered Clouds
3:53 PM 90.0 °F 90.6 °F 63.0 °F 40% 30.08 in 10.0 mi NNW 16.1 mph - N/A   Partly Cloudy
4:53 PM 88.0 °F 89.3 °F 64.0 °F 45% 30.09 in 10.0 mi NNW 13.8 mph - 0.00 in   Mostly Cloudy
5:53 PM 86.0 °F 87.6 °F 64.9 °F 49% 30.09 in 10.0 mi North 10.4 mph - N/A   Partly Cloudy
6:53 PM 84.9 °F 86.6 °F 64.9 °F 51% 30.11 in 10.0 mi NW 11.5 mph - N/A   Mostly Cloudy
7:53 PM 82.0 °F 83.8 °F 64.9 °F 56% 30.14 in 10.0 mi North 5.8 mph - N/A   Partly Cloudy
8:53 PM 77.0 °F - 68.0 °F 74% 30.17 in 10.0 mi NE 9.2 mph - N/A   Mostly Cloudy
9:53 PM 75.0 °F - 68.0 °F 79% 30.20 in 10.0 mi NNE 6.9 mph - N/A   Partly Cloudy
10:53 PM 73.0 °F - 68.0 °F 84% 30.21 in 10.0 mi North 10.4 mph - N/A   Scattered Clouds
11:11 PM 72.0 °F - 66.9 °F 84% 30.20 in 10.0 mi NNE 12.7 mph - N/A   Overcast
11:53 PM 71.1 °F - 64.9 °F 81% 30.21 in 10.0 mi North 12.7 mph - N/A   Overcast